Location: Seattle
(47.6064°N, 122.3308°W)
Time: 01:46:49
(UTC-08:00)

Tiros 1 - Pass Details

Date: 27 November 2020
Orbit: 630 x 663 km, 48.4° (Epoch: 28 January)

Event Time Altitude Azimuth Distance (km) Brightness Sun altitude
Rises 14:27:08 0° 187° (S) 2,981 11.7 13.3°
Reaches altitude 10° 14:30:53 10° 157° (SSE) 2,073 10.3 12.9°
Maximum altitude 14:32:45 12° 134° (SE) 1,929 9.7 12.7°
Drops below altitude 10° 14:34:38 10° 110° (ESE) 2,075 9.6 12.5°
Sets 14:38:22 0° 81° (E) 2,988 10.1 12.1°
